Regional Weather Roundup
Issued by NWS Newport/Morehead, NC

Current Version | Previous Version | Graphics & Text | Print | Product List | Glossary Off
Versions: 1 2 3 4 5 6 7 8 9 10 11 12 13 14 15 16 17 18 19 20 21 22 23 24 25 26 27 28 29 30 31 32 33 34 35 36 37 38 39 40 41 42 43 44 45 46 47 48 49 50

000
ASUS42 KMHX 010910
RWRMHX
WEATHER ROUNDUP FOR EASTERN NORTH CAROLINA
NATIONAL WEATHER SERVICE NEWPORT/MOREHEAD CITY NC
500 AM EDT MON SEP 01 2014

NOTE: "FAIR" INDICATES FEW OR NO CLOUDS BELOW 12,000 FEET
WITH NO SIGNIFICANT WEATHER AND/OR OBSTRUCTIONS TO VISIBILITY

NCZ015>017-031-032-045>047-102-103-011000-
NORTH COAST

CITY           SKY/WX    TMP DP  RH WIND       PRES   REMARKS
EDENTON        MOCLDY    77  75  95 SW6       30.09R
ELIZABETH CITY PTCLDY    77  75  93 SW8       30.08R
KITTY HAWK     MOSUNNY   78  75  90 SW6       30.08R
MANTEO         MOCLDY    78  74  88 SW9       30.09S

$$

NCZ045>047-081-094-103-104-011000-
CENTRAL COAST

CITY           SKY/WX    TMP DP  RH WIND       PRES   REMARKS
FRISCO         CLEAR     79  76  90 SW9       30.09S
SWANQUARTER      N/A     81 N/A N/A SW12      30.06S

$$

NCZ095-097-098-100-101-011000-
SOUTHERN COAST

CITY           SKY/WX    TMP DP  RH WIND       PRES   REMARKS
BEAUFORT       PTCLDY    81  77  88 SW13      30.10R
CEDAR ISLAND     N/A     79 N/A N/A S2        30.12S
JACKSONVILLE   CLEAR     75  74  96 W3        30.09R
NEWPORT        NOT AVBL
PINEY ISLAND   SUNNY     78  77  96 SW5       30.09R
WILMINGTON     PTCLDY    75  74  96 CALM      30.09S


$$

NCZ011>013-027>030-043-044-078>080-089-090>093-098-011000-
COASTAL PLAIN

CITY           SKY/WX    TMP DP  RH WIND       PRES   REMARKS
AHOSKIE        CLEAR     73  72  96 S3        30.08S
CLINTON        CLEAR     74  74 100 CALM      30.09R
ELIZABETHTOWN  PTCLDY    75  74  98 CALM      30.09R
GOLDSBORO      PTCLDY    75  75  99 S1        30.07R
GREENVILLE     PTCLDY    75  73  94 SW3       30.10R
HAVELOCK       CLEAR     77  75  93 S6        30.10R
KENANSVILLE    PTCLDY    74  72  95 CALM      30.10R
KINSTON        PTCLDY    75  74  96 S3        30.10R
NEW BERN       LGT RAIN  77  74  90 S3        30.10S
RICHLANDS      PTCLDY    72  66  83 CALM      30.10S
ROANOKE RAPIDS NOT AVBL
ROCKY MOUNT    CLEAR     75  73  93 S7        30.08R
WASHINGTON     PTCLDY    75  74  95 S5        30.09R
WHITEVILLE     CLEAR     75  73  93 SW3       30.08S

$$

AMZ130-135-150-152-154-156-158-170-250-252-270-ANZ085-086-088-633-658-670-011000-
MARINE OBSERVATIONS

STATION/POSITION TIME  TEMP    WIND        PRES    WAVE   SWELL
                       AIR SEA DIR/SP/G            HT/PER HT/PER
                 (UTC) (F)     (DEG/KT/KT) (MB)    (FT/S) (FT/S)
CHESAPEAKE LIGHT 0800   78     220/ 18/ 19 1018.0
BUOY 44014       0900   78 77  200/ 12/ 14 1018.0    3/ 9   3/ 9
DUCK             0900   79 75  210/  8/ 10 1018.0
2E DUCK          0900                        N/A     2/ 9
OREGON INLET     0900   80 83  200/ 12/ 14 1018.6
BUOY 44095       0900      78                N/A     3/ 8   2/11
20E OREGON INLET NOT AVBL
HATTERAS CG      0900   81 84  220/  8/ 14 1019.4
DIAMOND BUOY     0900   81     200/ 16/ 19 1018.8    3/ 9   2/ 9
CAPE LOOKOUT     0800   81     210/  9/ 11 1018.7
BEAUFORT LAB     0900   81 83  210/  8/ 11 1018.6
30 SE NEW RIVER  0900   81 83  220/ 14/ 16 1019.2    3/ 9   2/ 9
5 SE WRIGHTSVILL 0800   78 82  220/ 12/ 14   N/A
BUOY 41002       0803   80 83  170/  6/  6 1020.7    3/ 9   3/ 9
BUOY 41004       0900   82 83  210/  8/ 10 1018.1    3/ 9   3/ 9

$$



USA.gov is the U.S. government's official web portal to all federal, state and local government web resources and services.